Location: Newark
(39.5667°N, 8.9833°E)
Time: 22:58:17
(UTC+00:00)

Transit 2A - Pass Details

Date: 24 October 2019
Orbit: 601 x 957 km, 66.7° (Epoch: 16 November)

Event Time Altitude Azimuth Distance (km) Brightness Sun altitude
Rises 03:23:27 0° 323° (NW) 2,868 - -27.5°
Reaches altitude 10° 03:25:47 10° 316° (NW) 1,950 - -27.1°
Maximum altitude 03:29:51 40° 247° (WSW) 891 - -26.3°
Drops below altitude 10° 03:33:58 10° 177° (S) 1,972 - -25.5°
Exits shadow 03:34:34 - 175° (S) 2,203 8.4 -25.4°
Sets 03:36:21 0° 170° (S) 2,905 9.1 -25.1°
